ORBCOMM FM20

Last updated on Thu Aug 20 2026 00:03:08 GMT+0000 (Coordinated Universal Time)

1 25416U 98046D 26230.67356327 .00000378 00000+0 16999-3 0 9991 2 25416 44.9952 315.1339 0002719 238.4267 121.6316 14.38141002465783
UTC large
Height (km)
Speed (km/s)
/
Latitude / Longitude
Inclination (degrees)
Orbital Period (minutes)
Azimuth
Elevation
Range (km)
Doppler Factor

Next 0 passes for location: London (51.5072 / 0.1276)

No passes found over London.
ORBCOMM FM20